Regional Weather Roundup
Issued by NWS

Home | Current Version | Previous Version | Text Only | Print | Product List | Glossary Off
Versions: 1 2 3 4 5 6 7 8 9 10 11 12 13 14 15 16 17 18 19 20 21 22 23 24 25 26 27 28 29 30 31 32 33 34 35 36 37 38 39 40 41 42 43 44 45 46 47 48 49 50

000
ASUS43 KMPX 031710
RWRMN
WEATHER ROUNDUP FOR MINNESOTA
NATIONAL WEATHER SERVICE TWIN CITIES/CHANHASSEN MN
1200 PM CDT SUN MAY 03 2015


NOTE: "FAIR" INDICATES FEW OR NO CLOUDS BELOW 12,000 FEET WITH NO
SIGNIFICANT WEATHER AND/OR OBSTRUCTIONS TO VISIBILITY. N/A MEANS
CURRENT SKY AND/OR WEATHER CONDITIONS ARE NOT AVAILABLE.

MNZ060>063-068>070-031800-
   Twin Cities Metro

CITY           SKY/WX    TMP DP  RH WIND       PRES   REMARKS
TWIN CITIES    PTSUNNY   74  55  51 CALM      29.79R
ST PAUL        MOSUNNY   72  55  55 SE5       29.79S
CRYSTAL        MOSUNNY   74  54  49 SW9       29.78R
BLAINE         MOSUNNY   73  55  53 S5        29.78S
LAKEVILLE      MOSUNNY   73  55  53 S7        29.79R
EDEN PRAIRIE   MOSUNNY   74  56  53 S6        29.77S
SOUTH ST PAUL  MOSUNNY   74  53  48 SE5       29.78S
LAKE ELMO      FAIR      72  55  56 S7        29.80S
$$
MNZ001>005-007-008-013>017-022>024-027-028-031800-
   Northwest Minnesota

CITY           SKY/WX    TMP DP  RH WIND       PRES   REMARKS
BEMIDJI        CLOUDY    60  38  44 NW24      29.85R
HALLOCK        PTSUNNY   63  25  23 W18G28    29.87R
ROSEAU         MOSUNNY   61  39  44 W16G28    29.84R
WARROAD        PTSUNNY   61  39  44 W17G23    29.82S
THIEF RVR FALL CLOUDY    59  36  41 W15       29.89R
CROOKSTON      CLOUDY    59  34  38 NW16G26   29.91R
DETROIT LAKES  PTSUNNY   61  39  44 N17G29    29.89R
MOORHEAD       CLOUDY    64  37  36 N23       29.89R
PARK RAPIDS    PTSUNNY   69  36  29 NW15      29.85R
MAHNOMEN       FAIR      61  37  40 N22G28    29.87R
$$
MNZ006-009>011-018-025>026-031800-
   North Central Minnesota

CITY           SKY/WX    TMP DP  RH WIND       PRES   REMARKS
BAUDETTE       CLOUDY    61  39  44 W10G21    29.82R
FLAG ISLAND    MOSUNNY   55  41  58 NW22      29.79R
INTL FALLS     PTSUNNY   65  37  35 NW20G26   29.79R
WASKISH        CLOUDY    63  46  55 W10G18    29.84R
BIG FORK       PTSUNNY   68  34  28 W12G20    29.81R
LONGVILLE      MOSUNNY   72  32  23 W14G21    29.83R
GRAND RAPIDS   MOSUNNY   72  39  30 NW13      29.81R
CRANE LAKE     PTSUNNY   70  36  28 NW9G16    29.77R
COOK           MOSUNNY   72  34  25 W16G24    29.77R
WALKER         FAIR      66  35  31 NW13G23   29.84R
$$
MNZ012-019>021-037-031800-
   Northeast Minnesota

CITY           SKY/WX    TMP DP  RH WIND       PRES   REMARKS
DULUTH         MOSUNNY   76  44  32 VRB5      29.76R
ELY            MOSUNNY   72  30  21 NW13G20   29.75R
HIBBING        MOSUNNY   77  32  19 NW13      29.76R
EVELETH        MOSUNNY   72  32  23 NW17      29.77R
DULUTH HARBOR  MOSUNNY   75  55  50 SW9       29.75R
TWO HARBORS    MOSUNNY   81  52  36 NW9       29.73R
SILVER BAY     PTSUNNY   79  43  27 W9        29.71R
GRAND MARAIS     N/A     48  40  73 SW13      29.72R
G MARAIS ARPRT MOSUNNY   73  36  25 W12G21    29.74R
$$
MNZ029>031-032-039>041-046>048-054>057-064-031800-
   West Central Minnesota

CITY           SKY/WX    TMP DP  RH WIND       PRES   REMARKS
FERGUS FALLS   PTSUNNY   64  39  39 N17G32    29.87
WHEATON        MOSUNNY   66  39  37 N23G30    29.88R
MORRIS         MOSUNNY   72  46  40 N28       29.81S
ALEXANDRIA     PTSUNNY   67  46  47 N15       29.84R
ELBOW LAKE     FAIR      67  41  38 N16G25    29.85R
WADENA         MOSUNNY   70  41  35 N16G23    29.84R
GLENWOOD       MOSUNNY   70  50  49 N18G26    29.82R
APPLETON       SUNNY     73  45  35 N29G36    29.80R
BENSON         SUNNY     73  54  49 NE16G23   29.80S
ORTONVILLE     PTSUNNY   70  39  32 N30G41    29.83R
MADISON        SUNNY     72  52  49 N22G28    29.81R
WILLMAR        FAIR      72  57  60 N8        29.81R
$$
MNZ033>034-036-042>043-049>051-058-059-031800-
   Central Minnesota

CITY           SKY/WX    TMP DP  RH WIND       PRES   REMARKS
ST CLOUD       CLOUDY    64  54  69 CALM      29.80S
SAUK CENTRE    PTSUNNY   69  56  62 N8        29.82R
PAYNESVILLE    CLOUDY    64  55  73 NW8       29.81R
AITKIN         MIX PCPN  72  43  35 SW5       29.81R
PINE RIVER     PTSUNNY   72  39  30 NW10      29.86R
BRAINERD       LGT RAIN  64  46  52 N13G30    29.81R
STAPLES        PTSUNNY   66  46  48 N8        29.82R
LONG PRAIRIE   PTSUNNY   68  43  40 N15G23    29.82R
LITTLE FALLS   PTSUNNY   70  52  52 W8        29.81R
LITCHFIELD     MOSUNNY   72  57  60 NE3       29.79S
BUFFALO        PTSUNNY   71  54  56 N7        29.81R
MAPLE LAKE     PTSUNNY   68  58  72 NW6       29.82F
$$
MNZ037-044-045-052-053-031800-
   East Central Minnesota

CITY           SKY/WX    TMP DP  RH WIND       PRES   REMARKS
PRINCETON      PTSUNNY   68  54  60 SW7       29.83R
MORA           MOSUNNY   66  52  59 CALM      29.82R
CAMBRIDGE      PTSUNNY   72  55  56 CALM      29.79R
RUSH CITY      MOSUNNY   69  53  56 CALM      29.80S
MOOSE LAKE     MOSUNNY   75  50  41 W8        29.76R
HINCKLEY       FAIR      72  55  56 SW12      29.80R
CLOQUET        MOSUNNY   73  45  35 NW7       29.77R
MCGREGOR       MOSUNNY   72  45  37 NW8       29.80R
$$
MNZ071>073-080-081-089-090-097-098-031800-
   Southwest Minnesota

CITY           SKY/WX    TMP DP  RH WIND       PRES   REMARKS
MONTEVIDEO     SUNNY     75  55  50 NE16G25   29.79S
GRANITE FALLS  SUNNY     72  55  55 NW9       29.80R
CANBY          PTSUNNY   70  55  59 N15G24    29.82R
MARSHALL       MOSUNNY   72  52  49 N14G22    29.79R
REDWOOD FALLS  SUNNY     77  54  44 W10G17    29.76R
OLIVIA         SUNNY     72  54  53 NW8       29.77S
PIPESTONE      SUNNY     73  52  46 W3        29.79R
WINDOM         SUNNY     79  52  38 SW5       29.78S
WORTHINGTON    SUNNY     75  54  46 SW13      29.79R
JACKSON        SUNNY     77  50  38 SW8       29.80R
TRACY          SUNNY     78  55  45 NW12      29.78R
SLAYTON        SUNNY     76  51  41 W7        29.80R
$$
MNZ065>067-074>077-082>085-091>093-031800-
   South Central Minnesota

CITY           SKY/WX    TMP DP  RH WIND       PRES   REMARKS
MANKATO        SUNNY     75  52  43 SW6       29.78F
NEW ULM        SUNNY     77  52  41 W8G20     29.77R
ST JAMES       SUNNY     81  48  32 SW12G20   29.78S
FAIRMONT       SUNNY     79  48  34 SW9       29.79S
GLENCOE        SUNNY     77  57  49 SW5       29.77S
FARIBAULT      MOSUNNY   77  54  44 SW3       29.79S
OWATONNA       MOSUNNY   79  48  34 SW10G17   29.79S
WASECA         MOSUNNY   77  50  38 SW12G18   29.81R
ALBERT LEA     MOSUNNY   75  52  43 S8        29.80S
$$
MNZ078>079-086>088-094>096-031800-
   Southeast Minnesota

CITY           SKY/WX    TMP DP  RH WIND       PRES   REMARKS
ROCHESTER      MOSUNNY   77  52  41 SW10      29.82S
RED WING       PTSUNNY   73  52  46 SE5       29.78S
STANTON        MOSUNNY   76  53  44 SW12      29.78R
DODGE CENTER   MOSUNNY   75  54  46 SW8       29.80F
WINONA         MOSUNNY   73  54  49 CALM      29.82F
AUSTIN         MOSUNNY   75  54  46 SW14G23   29.81R
PRESTON        MOSUNNY   74  52  46 CALM      29.83F
$$
ABBREVIATIONS USED IN REMARKS
   TC - TEMPERATURES IN CELSIUS
  WCI - WIND CHILL INDEX
   HX - HEAT INDEX
  VSB - VISIBILITY
$$



USA.gov is the U.S. government's official web portal to all federal, state and local government web resources and services.